Weather in Korenovsk

Russia / Krasnodar Krai     45°27′45″N   39°26′52″E
temp.,
°C
wind,
m/s
gust,
m/s
humid.,
%
clouds,
%
prec.,
mm/h
press.,
hPa
HPBL,
m
18 may, tue
tue1800:00+14sw3694100 0.0 1010156
03:00+13sw3796100 0.0 1011164
06:00+14sw3995100 0.0 1010351
09:00+18wsw577513 0.0 1011861
12:00+21wsw576323 0.3 10111494
15:00+23sw37545 0.6 10102173
18:00+20sw47712 0.0 1010396
21:00+16s338094 0.0 101039
19 may, wed
wed1900:00+15ese3384100 0.0 100832
03:00+15nnw1194100 1.0 100816
06:00+14wsw2598100 5.0 1009230
09:00+13wsw81395100 10.9 1011839
12:00+18sw71272100 1.9 10131575
15:00+18sw1015765 3.2 10131705
18:00+16sw91676100 0.5 10141259
21:00+14sw815758 0.5 1015993
20 may, thu
thu2000:00+14sw715765 0.0 1015839
03:00+11ssw41085100 0.0 1015226
06:00+12sw39875 0.0 1015203
09:00+18sw35645 0.0 1015665
12:00+21s34561 0.0 10141246
15:00+23ese33525 0.0 10131259
18:00+21e58710 0.0 1012406
21:00+16ene513770 0.0 1012237
21 may, fri
fri2100:00+15ene5127991 0.0 1010222
03:00+13e411875 0.0 1009192
06:00+14e4108693 0.0 1009182
09:00+21ese587223 0.0 1008370
12:00+26e796198 0.0 1007544
15:00+28ese56580 0.0 1007912
18:00+27ese357427 0.0 1006223
21:00+21e228967 0.0 100713
22 may, sat
sat2200:00+19ene2292100 0.0 100614
03:00+17e229399 0.0 100629
06:00+18ne4690100 0.0 1006131
09:00+21wsw117997 0.0 1005159
12:00+24nne1175100 0.0 1007174
15:00+26ene5773100 0.0 1007453
18:00+23ene3983100 0.0 1007254
21:00+22wnw2288100 0.0 100835